Location: Grantsboro
(35.1404°N, 76.8424°W)
Time: 17:28:37
(UTC+00:00)

STARLINK-37 - Pass Details

Date: 18 January 2020
Orbit: 528 x 531 km, 53.0° (Epoch: 19 February)

Event Time Altitude Azimuth Distance (km) Brightness Sun altitude
Exits shadow 11:27:42 - 240° (WSW) 2,398 6.5 -9.7°
Reaches altitude 10° 11:29:19 10° 245° (WSW) 1,768 5.8 -9.4°
Maximum altitude 11:33:12 47° 320° (NW) 703 3.8 -8.7°
Drops below altitude 10° 11:37:06 10° 35° (NE) 1,778 6.4 -7.9°
Sets 11:39:23 0° 41° (NE) 2,672 7.4 -7.5°
